{"data":{"norad_id":65020,"epoch":"2026-05-25T00:00:02.000160Z","epoch_age_seconds":65106,"freshness":"FRESH","line1":"1 65020U 25161F   26145.00002315  .00007021  00000+0  21878-3 0  9995","line2":"2 65020  53.1584 299.5069 0000857  75.7020  36.1163 15.34391551  5880","mean_motion":15.34391551,"eccentricity":8.57e-5,"inclination_deg":53.1584,"raan_deg":299.5069,"arg_perigee_deg":75.702,"mean_anomaly_deg":36.1163,"bstar":0.00021878,"rev_number":588,"period_min":93.848274846242,"perigee_km":462.14209037017,"apogee_km":463.3146146916,"semimajor_km":6840.8653525309,"source":"CELESTRAK","updated_at":"2026-05-25T13:38:20.667364Z"}}